User: anonymous   Login
Location: French Creek State Gamelands
(40.1750°N, 75.7969°W)
Time: 04:26:57
(UTC-04:00)
Language:

ISS - Orbit

View from above orbital plane
View from above orbital plane
View from above satellite
View from above satellite

Ground track
Ground track

The orbit data is extracted from the following two-line orbital elements,

1 25544U 98067A   15149.53295492  .00005346  00000-0  84571-4 0  9996
2 25544 051.6442 177.1709 0003993 359.0130 160.2614 15.55226167945133
Epoch (UTC): 29 May 2015 12:47:27
Eccentricity: 0.0003993
inclination: 51.6442°
perigee height: 399 km
apogee height: 404 km
right ascension of ascending node: 177.1709°
argument of perigee: 359.0130°
revolutions per day: 15.55226167
mean anomaly at epoch: 160.2614°
orbit number at epoch: 94513

The dashed part of the orbit path shows where the satellite is in the earth's shadow,  

DLR